GW5682 Weather Reports


Display with metric or nautical units.
time (UTC)temp
F
wind
direction
speed
MPH
gust
MPH
rain 1hr
in
rain 24hr
in
rain mn
in
humidity
%
barometer
mb
20260905081116 77 0.0 0.0 0.00 0.00 0.00 77 1015.5
20260905080140 77 0.0 0.0 0.00 0.00 0.00 77 1015.4
20260905075136 77 0.0 0.0 0.00 0.00 0.00 76 1015.6
20260905074140 77 0.0 0.0 0.00 0.00 0.00 76 1015.5
20260905073116 78 0.0 1.0 0.00 0.00 0.00 76 1015.5
20260905072201 78 0.0 0.0 0.00 0.00 0.00 75 1015.7
20260905071116 78 0.0 0.0 0.00 0.00 0.00 75 1015.6
20260905070140 78 0.0 0.0 0.00 0.00 0.00 75 1015.8
20260905065116 78 0.0 0.0 0.00 0.00 0.00 74 1015.8
20260905064140 78 0.0 0.0 0.00 0.00 0.00 74 1015.9
20260905063116 79 0.0 0.0 0.00 0.00 0.00 73 1015.8
20260905062201 79 0.0 0.0 0.00 0.00 0.00 72 1015.8
20260905061117 79 0.0 1.0 0.00 0.00 0.00 72 1015.9
20260905060140 80 0.0 0.0 0.00 0.00 0.00 71 1015.8
20260905055237 80 0.0 0.0 0.00 0.00 0.00 71 1015.7
20260905054140 80 0.0 0.0 0.00 0.00 0.00 70 1015.7
20260905053116 80 0.0 0.0 0.00 0.00 0.00 71 1015.8
20260905052201 80 0.0 0.0 0.00 0.00 0.00 71 1015.6
20260905051116 80 0.0 0.0 0.00 0.00 0.00 71 1015.6
20260905050140 80 0.0 0.0 0.00 0.00 0.00 70 1015.5
20260905045116 80 0.0 0.0 0.00 0.00 0.00 70 1015.7
20260905044241 80 0.0 0.0 0.00 0.00 0.00 70 1015.8
20260905043156 81 0.0 0.0 0.00 0.00 0.00 70 1015.7
20260905042140 81 0.0 0.0 0.00 0.00 0.00 69 1015.5
20260905041116 81 0.0 0.0 0.00 0.00 0.00 69 1015.6
20260905040140 81 0.0 0.0 0.00 0.00 0.00 69 1015.6
20260905035136 81 0.0 0.0 0.00 0.00 0.00 70 1015.6
20260905034140 82 0.0 0.0 0.00 0.00 0.00 65 1015.6
20260905033116 82 0.0 0.0 0.00 0.00 0.00 63 1015.7
20260905032140 83 0.0 0.0 0.00 0.00 0.00 62 1015.7
20260905031116 83 0.0 0.0 0.00 0.00 0.00 62 1015.5
20260905030140 83 0.0 0.0 0.00 0.00 0.00 61 1015.6
20260905025116 83 0.0 1.0 0.00 0.00 0.00 61 1015.4
20260905024140 84 0.0 0.0 0.00 0.00 0.00 61 1015.3
20260905023116 84 45 1.0 1.0 0.00 0.00 0.00 61 1015.1
20260905022140 85 0.0 0.0 0.00 0.00 0.00 60 1014.9
20260905021117 85 90 1.0 1.0 0.00 0.00 0.00 60 1014.7
20260905020140 86 0.0 1.0 0.00 0.00 0.00 59 1014.8
20260905015116 86 90 1.0 3.0 0.00 0.00 0.00 58 1014.5
20260905014140 87 90 1.0 1.0 0.00 0.00 0.00 57 1014.5
20260905013157 87 90 1.0 2.0 0.00 0.00 0.00 56 1014.5
20260905012140 88 90 1.0 2.0 0.00 0.00 0.00 56 1014.6
20260905011116 89 90 1.0 1.0 0.00 0.00 0.00 54 1014.6
20260905010140 90 90 1.0 1.0 0.00 0.00 0.00 52 1014.2
20260905005116 90 90 2.0 4.0 0.00 0.00 0.00 51 1014.3
20260905004140 91 135 1.0 2.0 0.00 0.00 0.00 46 1014.0
20260905003116 92 0 3.0 5.0 0.00 0.00 0.00 44 1014.0
20260905002200 93 90 4.0 5.0 0.00 0.00 0.00 40 1013.8
20260905001116 94 0.0 1.0 0.00 0.00 0.00 40 1013.7
20260905000141 95 135 1.0 3.0 0.00 0.00 0.00 38 1013.8
20260904235116 96 180 1.0 2.0 0.00 0.00 0.00 37 1013.8
20260904234140 97 0.0 1.0 0.00 0.00 0.00 37 1014.1
20260904233116 98 135 1.0 1.0 0.00 0.00 0.00 35 1013.7
20260904232140 99 90 2.0 2.0 0.00 0.00 0.00 36 1013.7
20260904231116 98 135 1.0 1.0 0.00 0.00 0.00 36 1013.8
20260904230141 99 0 2.0 4.0 0.00 0.00 0.00 38 1013.8
20260904225116 98 90 3.0 4.0 0.00 0.00 0.00 38 1013.7
20260904224140 99 90 4.0 6.0 0.00 0.00 0.00 37 1013.8
20260904223117 99 90 2.0 3.0 0.00 0.00 0.00 37 1014.0
20260904221625 98 180 1.0 3.0 0.00 0.00 0.00 40 1013.9
20260904220628 97 180 1.0 3.0 0.00 0.00 0.00 40 1014.1
20260904215604 97 45 2.0 3.0 0.00 0.00 0.00 41 1014.1
20260904214628 96 90 1.0 2.0 0.00 0.00 0.00 40 1014.1
20260904213604 97 45 4.0 6.0 0.00 0.00 0.00 40 1014.3
20260904212628 98 203 3.0 4.0 0.00 0.00 0.00 40 1014.2
20260904211604 96 315 2.0 4.0 0.00 0.00 0.00 40 1014.4
20260904210628 97 90 3.0 4.0 0.00 0.00 0.00 40 1014.4
20260904205604 99 135 3.0 5.0 0.00 0.00 0.00 37 1014.7
20260904204628 99 180 1.0 2.0 0.00 0.00 0.00 36 1014.6
20260904203604 99 45 2.0 4.0 0.00 0.00 0.00 37 1014.7
20260904202628 96 135 5.0 9.0 0.00 0.00 0.00 38 1014.8
20260904201604 99 270 2.0 3.0 0.00 0.00 0.00 36 1014.9
20260904200628 100 315 5.0 7.0 0.00 0.00 0.00 32 1015.2
20260904195604 101 90 6.0 7.0 0.00 0.00 0.00 33 1015.2
20260904194628 101 180 2.0 4.0 0.00 0.00 0.00 33 1015.3
20260904193604 100 90 1.0 1.0 0.00 0.00 0.00 36 1015.5
20260904192628 99 90 5.0 9.0 0.00 0.00 0.00 38 1015.3
20260904191604 99 90 3.0 3.0 0.00 0.00 0.00 39 1015.5
20260904190628 99 225 2.0 3.0 0.00 0.00 0.00 37 1015.7
20260904185604 98 180 3.0 5.0 0.00 0.00 0.00 39 1015.8
20260904184628 97 180 3.0 5.0 0.00 0.00 0.00 41 1016.1
20260904183624 97 90 4.0 5.0 0.00 0.00 0.00 41 1016.2
20260904182629 95 45 1.0 3.0 0.00 0.00 0.00 46 1016.3
20260904181604 96 90 2.0 3.0 0.00 0.00 0.00 44 1016.5
20260904180503 97 180 1.0 2.0 0.00 0.00 0.00 45 1016.6
20260904175117 97 135 6.0 8.0 0.00 0.00 0.00 44 1016.9
20260904174141 96 135 1.0 3.0 0.00 0.00 0.00 42 1016.9
20260904173117 95 225 3.0 4.0 0.00 0.00 0.00 43 1017.1
20260904172141 95 270 3.0 3.0 0.00 0.00 0.00 43 1017.1
20260904171117 95 90 1.0 1.0 0.00 0.00 0.00 45 1017.2
20260904170202 94 45 3.0 4.0 0.00 0.00 0.00 46 1017.4
20260904165117 94 135 4.0 5.0 0.00 0.00 0.00 48 1017.4
20260904164141 93 315 2.0 3.0 0.00 0.00 0.00 50 1017.2
20260904163137 92 135 1.0 3.0 0.00 0.00 0.00 49 1017.3
20260904162141 92 180 1.0 3.0 0.00 0.00 0.00 51 1017.3
20260904161117 92 180 1.0 3.0 0.00 0.00 0.00 52 1017.3
20260904160202 91 180 1.0 2.0 0.00 0.00 0.00 53 1017.4
20260904155137 91 225 1.0 3.0 0.00 0.00 0.00 53 1017.1
20260904154221 90 180 2.0 4.0 0.00 0.00 0.00 60 1017.4
20260904153117 89 90 1.0 2.0 0.00 0.01 0.00 62 1017.2
20260904152141 88 180 1.0 1.0 0.00 0.01 0.00 63 1017.2
20260904151117 87 315 1.0 2.0 0.00 0.01 0.00 65 1017.3
20260904150141 86 180 1.0 2.0 0.00 0.01 0.00 71 1017.2
20260904145117 85 180 3.0 4.0 0.00 0.01 0.00 71 1017.6
20260904144141 84 45 2.0 4.0 0.00 0.01 0.00 74 1017.5
20260904143117 83 45 3.0 5.0 0.00 0.01 0.00 76 1017.3
20260904142141 82 135 1.0 2.0 0.00 0.01 0.00 79 1017.3
20260904141137 81 23 1.0 1.0 0.00 0.01 0.00 85 1017.3
20260904140141 80 0.0 1.0 0.00 0.01 0.00 88 1017.4
20260904135117 79 90 1.0 1.0 0.00 0.01 0.00 92 1017.3
20260904134202 78 0.0 1.0 0.00 0.01 0.00 94 1017.1
20260904133137 78 0.0 1.0 0.00 0.01 0.00 95 1017.0
20260904132141 77 135 1.0 1.0 0.00 0.01 0.00 97 1017.1
20260904131117 77 338 1.0 3.0 0.00 0.01 0.00 98 1016.8
20260904130141 76 90 1.0 2.0 0.00 0.01 0.00 98 1016.8
20260904125117 76 135 1.0 2.0 0.00 0.01 0.00 98 1016.6
20260904124221 76 0.0 1.0 0.00 0.01 0.00 98 1016.4
20260904123117 76 90 1.0 2.0 0.00 0.01 0.00 98 1016.5
20260904122141 75 0.0 1.0 0.00 0.01 0.00 98 1016.5
20260904121117 75 180 1.0 1.0 0.00 0.01 0.00 97 1016.3
20260904120141 74 90 1.0 1.0 0.00 0.01 0.00 96 1016.3
20260904115117 74 135 1.0 1.0 0.00 0.01 0.00 95 1016.2
20260904114141 74 0.0 1.0 0.00 0.01 0.00 95 1016.3
20260904113137 74 0.0 0.0 0.00 0.01 0.00 94 1016.2
20260904112141 74 0.0 1.0 0.00 0.01 0.00 93 1016.0
20260904111117 74 0.0 1.0 0.00 0.01 0.00 92 1016.2
20260904110141 74 0.0 0.0 0.00 0.01 0.00 91 1016.2
20260904105117 74 0.0 0.0 0.00 0.01 0.00 91 1016.1
20260904104141 74 0.0 0.0 0.00 0.01 0.00 91 1015.9
20260904103117 74 0.0 1.0 0.00 0.01 0.00 91 1015.8
20260904102141 74 0.0 0.0 0.00 0.01 0.00 90 1015.8
20260904101117 74 0.0 1.0 0.00 0.01 0.00 89 1015.6
20260904100201 74 0.0 0.0 0.00 0.01 0.00 88 1015.6
20260904095117 74 90 1.0 1.0 0.00 0.01 0.00 87 1015.6
20260904094141 74 0.0 0.0 0.00 0.01 0.00 85 1015.8
20260904093117 74 0.0 0.0 0.00 0.01 0.00 85 1015.7
20260904092141 75 0.0 0.0 0.00 0.02 0.00 84 1015.9
20260904091117 75 0.0 0.0 0.00 0.04 0.00 83 1015.9
20260904090201 75 0.0 1.0 0.00 0.05 0.00 84 1015.7
20260904085117 75 0.0 0.0 0.00 0.05 0.00 83 1015.7
20260904084201 75 0.0 0.0 0.00 0.05 0.00 83 1015.7
20260904083117 75 0.0 0.0 0.00 0.05 0.00 82 1015.8
20260904082141 75 0.0 0.0 0.00 0.05 0.00 82 1015.6